{"data":{"norad_id":58463,"epoch":"2026-09-21T21:59:33.336384Z","epoch_age_seconds":122519,"freshness":"FRESH","line1":"1 58463U 23185B   26264.91635806  .00001028  00000+0  85108-4 0  9999","line2":"2 58463  97.6369 327.5713 0027753   0.2014 359.9216 15.00778293153799","mean_motion":15.00778293,"eccentricity":0.0027753,"inclination_deg":97.6369,"raan_deg":327.5713,"arg_perigee_deg":0.2014,"mean_anomaly_deg":359.9216,"bstar":8.5108e-5,"rev_number":15379,"period_min":95.950215079503,"perigee_km":545.22715461275,"apogee_km":583.76292802128,"semimajor_km":6942.632041317,"source":"CELESTRAK","updated_at":"2026-09-22T09:00:26.668216Z"}}